This is the latest recevied weather packets stored in our database for station/object AB4KN. If no packets are shown the sender has not sent any weather packets the latest 10 day(s).
| Time | Temp. | Humidity | Pressure | Rain* | Wind** | Luminosity | Snow |
|---|---|---|---|---|---|---|---|
| 1778085314 | 24.44° C | 67% | 1020.7 hPa | 0 mm | - | 95 W/m² | - |
| 1778085010 | 24.44° C | 67% | 1020.8 hPa | 0 mm | - | 305 W/m² | - |
| 1778084707 | 24.44° C | 67% | 1020.8 hPa | 0 mm | - | 152 W/m² | - |
| 1778084404 | 25° C | 66% | 1020.8 hPa | 0 mm | - | 246 W/m² | - |
| 1778084101 | 24.44° C | 67% | 1021.2 hPa | 0 mm | - | 214 W/m² | - |
| 1778083798 | 24.44° C | 68% | 1021.1 hPa | 0 mm | - | 232 W/m² | - |
| 1778083496 | 23.89° C | 68% | 1020.8 hPa | 0 mm | - | 214 W/m² | - |
| 1778083193 | 23.89° C | 68% | 1021.5 hPa | 0 mm | - | 199 W/m² | - |
| 1778082891 | 23.89° C | 69% | 1021.4 hPa | 0 mm | - | 281 W/m² | - |
| 1778081783 | 22.78° C | 73% | 1021.8 hPa | 0 mm | - | 298 W/m² | - |
| 1778081480 | 22.78° C | 74% | 1021.8 hPa | 0 mm | - | 569 W/m² | - |
| 1778081177 | 22.78° C | 74% | 1021.5 hPa | 0 mm | - | 89 W/m² | - |
| 1778080875 | 22.22° C | 74% | 1021.5 hPa | 0 mm | - | 158 W/m² | - |
| 1778080573 | 21.67° C | 75% | 1021.6 hPa | 0 mm | - | 114 W/m² | - |
| 1778080270 | 22.22° C | 75% | 1021.7 hPa | 0 mm | - | 89 W/m² | - |
| 1778079966 | 22.22° C | 75% | 1021.4 hPa | 0 mm | - | 110 W/m² | - |
| 1778079663 | 21.67° C | 75% | 1021.5 hPa | 0 mm | - | 100 W/m² | - |
| 1778079360 | 21.67° C | 75% | 1021.4 hPa | 0 mm | - | 112 W/m² | - |
| 1778079058 | 21.67° C | 76% | 1021.5 hPa | 0 mm | - | 73 W/m² | - |
| 1778078754 | 21.67° C | 75% | 1021.4 hPa | 0 mm | - | 61 W/m² | - |
| 1778078451 | 21.67° C | 75% | 1021.6 hPa | 0 mm | - | 95 W/m² | - |
| 1778078149 | 21.67° C | 75% | 1021.2 hPa | 0 mm | - | 85 W/m² | - |
| 1778077847 | 21.67° C | 75% | 1021.4 hPa | 0 mm | - | 97 W/m² | - |
| 1778077544 | 21.11° C | 76% | 1021 hPa | 0 mm | - | 100 W/m² | - |
| 1778077243 | 21.11° C | 77% | 1021.3 hPa | 0 mm | - | 63 W/m² | - |
* Rain latest hour (hover to see other rain measurements)
** Current wind speed in m/s (hover to see current wind gust speed)